x

Isle Of Shoals, Nh (iosn3) Weather Station

5:00 - Sat 1st Oct 2016 All times are EDT. -4 hours from GMT.

  • Wind
    26mph, 31mph gusts
  • Aire Temp 54°f
  • Sea Pressure 1023.8mb
  • Isle Of Shoals, Nh
  • Isle Of Shoals, Nh

More Historic Weather Station data

Upgrade to MSW Pro to gain access to the past 30 days of data for over 8000 Wavebouys and Weather Stations around the globe.

Join Pro

Comparision Forecast

View Surf forecast
   
sáb 10/01 5:00 26 31 mph 1023.8mb 54f
4:00 23 28 mph 1024.2mb 55f
3:00 26 30 mph 1024.3mb 56f
2:00 25 29 mph 1024.5mb 55f
1:00 20 23 mph 1025.4mb 56f
12:00 23 25 mph 1025.8mb 57f
11:00 24 26 mph 1026.2mb 55f
10:00 22 24 mph 1026.8mb 55f
9:00 22 25 mph 1027.1mb 55f
8:00 21 23 mph 1026.9mb 55f
7:00 23 25 mph 1027mb 56f
6:00 23 25 mph 1026.8mb 56f
5:00 22 25 mph 1026.9mb 56f
4:00 22 24 mph 1027mb 57f
3:00 23 25 mph 1027.2mb 57f
2:00 23 25 mph 1027.9mb 56f
1:00 23 24 mph 1028mb 56f
12:00 21 22 mph 1028.6mb 56f
vie 09/30 11:00 21 23 mph 1028.8mb 56f
10:00 21 23 mph 1029.4mb 56f
9:00 20 22 mph 1029.6mb 56f
8:00 23 24 mph 1029.4mb 56f
7:00 22 24 mph 1029.3mb 56f
6:00 24 26 mph 1029.4mb 56f
5:00 23 25 mph 1029.6mb 56f
4:00 24 26 mph 1029.6mb 56f
3:00 23 25 mph 1030.6mb 56f
2:00 23 26 mph 1031mb 56f
1:00 23 26 mph 1031.8mb 56f
12:00 22 24 mph 1032.1mb 56f
11:00 21 23 mph 1032.2mb 56f
10:00 21 24 mph 1032.5mb 56f
9:00 23 24 mph 1032.2mb 55f
8:00 24 25 mph 1031.8mb 56f
7:00 23 25 mph 1031.7mb 56f
6:00 24 26 mph 1031.5mb 56f
5:00 23 24 mph 1031.8mb 56f
4:00 24 28 mph 1031.7mb 56f
3:00 24 26 mph 1031.6mb 57f
2:00 22 24 mph 1032.1mb 57f
1:00 22 24 mph 1032.6mb 57f
12:00 20 22 mph 1033mb 58f
jue 09/29 11:00 25 28 mph 1032.8mb 58f
10:00 22 24 mph 1032.7mb 58f
9:00 18 21 mph 1032.7mb 58f
8:00 21 22 mph 1032.4mb 57f
7:00 20 21 mph 1032.3mb 57f
6:00 20 22 mph 1032.3mb 57f
5:00 21 22 mph 1032.4mb 57f
4:00 21 24 mph 1032.2mb 57f
3:00 22 24 mph 1032.2mb 57f
2:00 22 23 mph 1032.3mb 56f
1:00 22 24 mph 1032.9mb 55f
12:00 23 25 mph 1032.6mb 54f
11:00 23 28 mph 1032.4mb 53f
10:00 26 29 mph 1032.2mb 53f
9:00 26 31 mph 1031.6mb 53f
8:00 24 28 mph 1031.2mb 52f
7:00 22 25 mph 1030.5mb 53f
6:00 24 30 mph 1029.7mb 55f
5:00 25 28 mph 1029.1mb 55f
4:00 23 28 mph 1028.6mb 56f
3:00 26 32 mph 1027.8mb 57f
2:00 32 34 mph 1027.5mb 57f
1:00 34 38 mph 1027.5mb 58f
12:00 34 39 mph 1027.4mb 58f
mié 09/28 11:00 39 44 mph 1026.8mb 59f
10:00 32 36 mph 1027mb 59f
9:00 30 32 mph 1026.5mb 59f
8:00 29 33 mph 1025.7mb 59f
7:00 28 32 mph 1025.5mb 58f
6:00 25 28 mph 1025.3mb 58f
5:00 20 23 mph 1025.3mb 57f
4:00 28 31 mph 1024.4mb 57f
3:00 24 28 mph 1024.9mb 55f
2:00 29 31 mph 1024.3mb 55f
1:00 29 33 mph 1024.3mb 55f
12:00 28 30 mph 1024mb 55f
11:00 29 32 mph 1023.9mb 55f
10:00 24 26 mph 1023.9mb 56f
9:00 25 28 mph 1023.3mb 55f
8:00 22 25 mph 1022.4mb 56f
7:00 21 25 mph 1021.6mb 56f
6:00 25 26 mph 1020.8mb 56f
5:00 24 25 mph 1020.1mb 58f
4:00 23 24 mph 1019.3mb 59f
3:00 22 24 mph 1018.8mb 59f
2:00 24 25 mph 1018.1mb 60f
1:00 18 20 mph 1017.6mb 60f
12:00 14 15 mph 1017mb 61f
mar 09/27 11:00 11 13 mph 1016.4mb 61f